Location: Richmond
(37.5540°N, 77.4610°W)
Time: 04:13:31
(UTC-05:00)

ISS - Visible Passes

Search period start: 19 February 2019 00:00
Search period end: 01 March 2019 00:00
Orbit: 403 x 411 km, 51.6° (Epoch: 19 February)

Date Brightness Start Highest point End Pass type
(mag) Time Alt. Az. Time Alt. Az. Time Alt. Az.
20 Feb -0.6 06:06:11 10° SSE 06:07:45 13° SE 06:09:20 10° E visible
22 Feb -2.2 05:58:03 10° SSW 06:01:02 34° SE 06:04:03 10° ENE visible
23 Feb -1.1 05:07:30 10° S 05:09:42 17° SE 05:11:57 10° E visible
24 Feb -3.9 05:51:41 14° SW 05:54:26 80° NW 05:57:43 10° NE visible
25 Feb -3.1 05:02:51 47° SE 05:02:57 48° SE 05:06:08 10° ENE visible
26 Feb -0.4 04:13:49 12° E 04:13:49 12° E 04:14:13 10° ENE visible
26 Feb -2.9 05:46:33 22° WNW 05:47:57 32° NNW 05:50:56 10° NNE visible
27 Feb -2.6 04:57:21 37° NNE 04:57:21 37° NNE 04:59:34 10° NE visible
28 Feb -1.9 05:40:45 16° NW 05:41:35 17° NNW 05:43:50 10° NNE visible
